Погода в Шерабаде

Узбекистан     37°40′30″N   67°00′59″E
темп.,
°C
ветер,
м/с
пор.,
м/с
влажн.,
%
обл.,
%
осадки,
мм/ч
давл.,
гПа
погр.,
м
4 августа, ср
ср423:00+30сз33150 0.0 100216
02:00+29сз11170 0.0 100211
05:00+27ссв33200 0.0 100317
08:00+31всв23180 0.0 1004258
11:00+35вюв33130 0.0 10041076
14:00+39ю34100 0.0 10023769
17:00+39ююз6590 0.0 10003574
20:00+34юз44111 0.0 100035
5 августа, чт
чт523:00+31св33150 0.0 100221
02:00+29с22170 0.0 100114
05:00+27св12200 0.0 100113
08:00+32всв46170 0.0 1003413
11:00+36в44120 0.0 10021056
14:00+39вюв3390 0.0 10002801
17:00+39ююз1394 0.0 9994184
20:00+35сз91490 0.0 999256
6 августа, пт
пт623:00+32сз712150 0.0 1000155
02:00+29св11190 0.0 100011
05:00+28ссв22190 0.0 100113
08:00+30вюв12173 0.0 1003245
11:00+35в22130 0.0 10031065
14:00+39вюв22100 0.0 10002331
17:00+39ю34109 0.0 9993979
20:00+34сз69141 0.0 999165
7 августа, сб
сб723:00+32сз33170 0.0 99924
02:00+30ссв33200 0.0 100024
05:00+27св22220 0.0 100111
08:00+31всв22180 0.0 1003248
11:00+35юв22140 0.0 10031211
14:00+39ююз54100 0.0 10013169
17:00+39ююз6692 0.0 10003205
20:00+34зсз45120 0.0 100164
8 августа, вс
вс823:00+30с44170 0.0 100239
02:00+29с22190 0.0 100213
05:00+27с11240 0.0 100412
08:00+30ююв22200 0.0 1005251
11:00+35ююв33140 0.0 1005919
14:00+39ю4390 0.0 10032914
17:00+39всв651010 0.0 10022664
20:00+32ссз23170 0.0 100324